User: anonymous   Login
Location: Unspecified
(0.0000°N, 0.0000°E)
Time: 16:39:18
(UTC+00:00)
Language:

Explorer 11/Cluster Stage 4 - Orbit

View from above orbital plane
View from above orbital plane
View from above satellite
View from above satellite

Ground track
Ground track

The orbit data is extracted from the following two-line orbital elements,

1   107U 61013A   18169.85246150 +.00000302 +00000-0 +17907-4 0  9998
2   107 028.7922 340.8900 0548175 266.8915 086.8826 14.08605915863252
Epoch (UTC): 18 June 2018 20:27:32
Eccentricity: 0.0548175
inclination: 28.7922°
perigee height: 467 km
apogee height: 1261 km
right ascension of ascending node: 340.8900°
argument of perigee: 266.8915°
revolutions per day: 14.08605915
mean anomaly at epoch: 86.8826°
orbit number at epoch: 86325

The dashed part of the orbit path shows where the satellite is in the earth's shadow,  

DLR